星链-34914 (STARLINK-34914)

导读

STARLINK-34914是美国SpaceX公司星链星座的第二代卫星,于2025年8月14日在美国发射升空。作为星链Gen2批次的组网卫星,它运行于近地轨道,配备增强型相控阵天线与激光星间链路,单星容量超100 Gbps,可支持全球高速低时延互联网接入,助力星链完成全球覆盖组网,同时服务民用宽带与军事通信等多场景。

基本信息
目录编号:
65203
目录名称:
STARLINK-34914
国际标识:
2025-176F
轨道中心:
EARTH
卫星名称:
星链-34914
卫星全名:
星链-34914 (STARLINK-34914)
卫星状态:
在轨 (已飞行303 天)
发射日期:
2025-08-14 UTC
国别 :
美国 (US)
星等 :
--
轨道信息
数据来源 国际轨道数据
星历时间: 2026-06-13T08:18:17+0800
15小时前
查看轨道信息
半长轴: 6840.809km
偏心率: 0.0001144
轨道倾角: 53.159°
近地点辐角 86.203°
升交点赤经 68.632°
平近点角 273.911°
近地点: 461.889km
远地点: 463.455km
周期: 93.847分钟
每日圈数: 15.344108
详细信息
固有亮度:
5
最大亮度:
2.5
卫星平台:
Starlink V1.0
覆盖范围:
全球
运营商:
太空探索技术公司
运营商所在国:
美国
制造商(研发单位):
太空探索技术公司
制造商所在国:
美国
使用方式:
暂无
卫星简介
Starlink 计划是 SpaceX 推出的全球卫星互联网项目,通过发射低轨道卫星,为全球尤其是偏远地区提供高速、低延迟的互联网服务。自 2019 年起,Starlink 已部署数千颗卫星,旨在缩小全球数字鸿沟,推动互联网普及。该项目还为军事、航空等行业提供通信支持,带来广泛经济效益。
2D轨道图
3D轨道图
轨道高度分析图
轨道倾角分析图
轨道综合分析图
查看轨道综合分析图